Hourly Data Report for October 05, 2016

All times are specified in Local Standard Time (LST). Add 1 hour to adjust for Daylight Saving Time where and when it is observed.

EUREKA CLIMATE
NUNAVUT

79°59'21.000" N
85°56'02.000" W
10.00 m
2401199
71613
NEK

Download Data

Hourly Data (October 2016)
Hourly Data Report for October 5, 2016
Temp Definition
°C
Dew Point Temp Definition
°C
Rel Hum Definition
%
Wind Dir Definition
10's deg

Wind Spd Definition
km/h
Visibility Definition
km
Stn Press Definition
kPa
Hmdx Definition


Wind Chill Definition


Weather Definition


TIME
00:00 -8.0 -8.9 93 14 24   100.26   -16 LegendNANA
01:00 -7.9 -9.1 91 13 25   100.28   -16 LegendNANA
02:00 -7.7 -9.0 91 15 28   100.29   -16 LegendNANA
03:00 -7.7 -9.0 90 15 30   100.31   -17 LegendNANA
04:00 -7.6 -8.9 90 15 29   100.35   -16 LegendNANA
05:00 -7.6 -8.9 90 16 30   100.36   -16 LegendNANA
06:00 -7.7 -9.1 90 15 30   100.40   -17 LegendNANA
07:00 -7.3 -8.9 88 16 27   100.45   -16 LegendNANA
08:00 -7.1 -8.4 90 16 28   100.47   -15 LegendNANA
09:00 -6.7 -8.0 90 16 24   100.51   -14 LegendNANA
10:00 -6.5 -7.5 93 15 26   100.53   -14 LegendNANA
11:00 -6.1 -7.4 91 16 26   100.56   -14 LegendNANA
12:00 -5.8 -7.3 89 16 26   100.58   -14 LegendNANA
13:00 -5.4 -7.0 89 15 28   100.62   -13 LegendNANA
14:00 -5.1 -6.8 88 15 23   100.64   -12 LegendNANA
15:00 -4.9 -6.5 88 15 20   100.67   -11 LegendNANA
16:00 -5.5 -7.2 88 12 19   100.69   -12 LegendNANA
17:00 -5.7 -7.5 87 11 22   100.71   -13 LegendNANA
18:00 -5.4 -7.2 87 13 24   100.71   -13 LegendNANA
19:00 -4.9 -6.8 86 12 27   100.71   -12 LegendNANA
20:00 -4.5 -6.0 89 13 31   100.69   -12 LegendNANA
21:00 -4.0 -5.6 89 13 30   100.68   -12 LegendNANA
22:00 -3.7 -5.4 88 14 27   100.66   -11 LegendNANA
23:00 -4.1 -5.6 89 14 28   100.60   -12 LegendNANA

Notes on Data Quality.

Legend

  • E = Estimated
  • M = Missing
  • NA = Not Available
  • ‡ = Partner data that is not subject to review by the National Climate Archives
Date modified: